TimeEST,TemperatureF,Dew PointF,Humidity,Sea Level PressureIn,VisibilityMPH,Wind Direction,Wind SpeedMPH,Gust SpeedMPH,PrecipitationIn,Events,Conditions,WindDirDegrees,DateUTC
12:15 AM,17.6,15.8,93,30.03,5.0,West,10.4,-,0.00,,Overcast,270,2013-01-24 05:15:00
12:35 AM,19.4,14.0,80,30.03,4.0,West,9.2,-,0.00,,Mostly Cloudy,280,2013-01-24 05:35:00
12:55 AM,19.4,14.0,80,30.04,4.0,West,11.5,16.1,0.00,,Overcast,280,2013-01-24 05:55:00
1:15 AM,19.4,15.8,86,30.05,3.0,WNW,12.7,-,0.00,,Overcast,290,2013-01-24 06:15:00
1:35 AM,19.4,15.8,86,30.06,4.0,WNW,12.7,19.6,0.00,,Overcast,290,2013-01-24 06:35:00
1:55 AM,19.4,14.0,80,30.07,9.0,NW,21.9,29.9,0.00,,Mostly Cloudy,310,2013-01-24 06:55:00
2:15 AM,19.4,12.2,74,30.09,10.0,NW,17.3,24.2,0.00,,Overcast,320,2013-01-24 07:15:00
2:35 AM,17.6,12.2,79,30.11,9.0,NW,18.4,29.9,0.00,,Overcast,320,2013-01-24 07:35:00
2:55 AM,17.6,10.4,73,30.13,10.0,NNW,21.9,29.9,0.00,,Scattered Clouds,330,2013-01-24 07:55:00
3:15 AM,14.0,8.6,79,30.15,10.0,NNW,19.6,26.5,0.00,,Clear,330,2013-01-24 08:15:00
3:35 AM,14.0,8.6,79,30.17,10.0,NNW,15.0,-,0.00,,Clear,330,2013-01-24 08:35:00
3:55 AM,14.0,8.6,79,30.19,10.0,NNW,17.3,23.0,0.00,,Clear,330,2013-01-24 08:55:00
4:15 AM,14.0,6.8,73,30.20,10.0,NNW,19.6,25.3,0.00,,Clear,330,2013-01-24 09:15:00
4:35 AM,12.2,5.0,73,30.22,10.0,NW,12.7,17.3,0.00,,Clear,320,2013-01-24 09:35:00
4:55 AM,12.2,5.0,73,30.23,10.0,NW,12.7,-,0.00,,Clear,320,2013-01-24 09:55:00
5:15 AM,12.2,5.0,73,30.25,10.0,NW,12.7,-,0.00,,Clear,320,2013-01-24 10:15:00
5:35 AM,12.2,5.0,73,30.26,10.0,NNW,11.5,-,0.00,,Clear,330,2013-01-24 10:35:00
5:55 AM,10.4,5.0,79,30.28,10.0,NNW,11.5,-,0.00,,Clear,330,2013-01-24 10:55:00
6:15 AM,10.4,5.0,79,30.30,10.0,NNW,9.2,-,0.00,,Clear,330,2013-01-24 11:15:00
6:35 AM,10.4,5.0,79,30.31,10.0,NW,10.4,-,0.00,,Clear,320,2013-01-24 11:35:00
6:55 AM,10.4,5.0,79,30.33,10.0,NW,6.9,-,0.00,,Clear,320,2013-01-24 11:55:00
7:15 AM,8.6,5.0,85,30.35,10.0,NW,6.9,-,0.00,,Clear,320,2013-01-24 12:15:00
7:35 AM,8.6,3.2,79,30.36,10.0,NW,4.6,-,0.00,,Clear,320,2013-01-24 12:35:00
7:55 AM,5.0,3.2,92,30.38,10.0,NNW,4.6,-,0.00,,Clear,330,2013-01-24 12:55:00
8:15 AM,6.8,3.2,85,30.39,10.0,NW,3.5,-,0.00,,Mostly Cloudy,320,2013-01-24 13:15:00
8:35 AM,8.6,3.2,79,30.40,10.0,NNW,3.5,-,0.00,,Scattered Clouds,340,2013-01-24 13:35:00
8:55 AM,8.6,5.0,85,30.41,10.0,NW,4.6,-,0.00,,Clear,320,2013-01-24 13:55:00
9:15 AM,10.4,5.0,79,30.41,10.0,NW,3.5,-,0.00,,Clear,310,2013-01-24 14:15:00
9:35 AM,10.4,5.0,79,30.43,10.0,NNW,5.8,-,0.00,,Clear,330,2013-01-24 14:35:00
9:55 AM,12.2,6.8,79,30.45,10.0,NNW,9.2,-,0.00,,Clear,340,2013-01-24 14:55:00
10:15 AM,12.2,6.8,79,30.47,10.0,NNW,9.2,-,0.00,,Clear,340,2013-01-24 15:15:00
10:35 AM,12.2,6.8,79,30.48,10.0,North,9.2,-,0.00,,Clear,360,2013-01-24 15:35:00
10:55 AM,14.0,8.6,79,30.50,10.0,North,11.5,-,0.00,,Partly Cloudy,350,2013-01-24 15:55:00
11:15 AM,14.0,8.6,79,30.51,10.0,North,10.4,-,0.00,,Mostly Cloudy,350,2013-01-24 16:15:00
11:35 AM,14.0,8.6,79,30.51,10.0,North,10.4,-,0.00,,Scattered Clouds,350,2013-01-24 16:35:00
11:55 AM,14.0,8.6,79,30.51,10.0,North,10.4,-,0.00,,Scattered Clouds,360,2013-01-24 16:55:00
12:15 PM,15.8,10.4,79,30.51,10.0,NNE,6.9,-,0.00,,Scattered Clouds,20,2013-01-24 17:15:00
12:35 PM,17.6,10.4,73,30.51,10.0,NE,6.9,-,0.00,,Scattered Clouds,40,2013-01-24 17:35:00
12:55 PM,17.6,10.4,73,30.50,10.0,North,5.8,-,0.00,,Scattered Clouds,10,2013-01-24 17:55:00
1:15 PM,17.6,10.4,73,30.50,10.0,North,8.1,-,0.00,,Scattered Clouds,360,2013-01-24 18:15:00
1:35 PM,17.6,10.4,73,30.49,10.0,NE,5.8,-,0.00,,Partly Cloudy,40,2013-01-24 18:35:00
1:55 PM,19.4,8.6,63,30.48,10.0,NE,5.8,-,0.00,,Clear,50,2013-01-24 18:55:00
2:15 PM,19.4,8.6,63,30.47,10.0,ENE,5.8,-,0.00,,Clear,70,2013-01-24 19:15:00
2:35 PM,19.4,6.8,58,30.48,10.0,ENE,4.6,-,0.00,,Clear,60,2013-01-24 19:35:00
2:55 PM,19.4,6.8,58,30.48,10.0,NE,5.8,-,0.00,,Clear,50,2013-01-24 19:55:00
3:15 PM,19.4,5.0,54,30.48,10.0,NE,5.8,-,0.00,,Clear,40,2013-01-24 20:15:00
3:35 PM,19.4,5.0,54,30.48,10.0,NE,5.8,-,0.00,,Clear,50,2013-01-24 20:35:00
3:55 PM,19.4,6.8,58,30.47,10.0,NE,6.9,-,0.00,,Clear,50,2013-01-24 20:55:00
4:15 PM,19.4,6.8,58,30.47,10.0,ENE,4.6,-,0.00,,Clear,60,2013-01-24 21:15:00
4:35 PM,19.4,5.0,54,30.47,10.0,NNE,5.8,-,0.00,,Clear,30,2013-01-24 21:35:00
4:55 PM,19.4,5.0,54,30.48,10.0,NE,5.8,-,0.00,,Clear,50,2013-01-24 21:55:00
5:15 PM,17.6,6.8,63,30.48,10.0,NE,4.6,-,0.00,,Clear,50,2013-01-24 22:15:00
5:35 PM,17.6,6.8,63,30.48,10.0,NE,4.6,-,0.00,,Clear,50,2013-01-24 22:35:00
5:55 PM,17.6,6.8,63,30.48,10.0,NE,3.5,-,0.00,,Clear,40,2013-01-24 22:55:00
6:15 PM,15.8,6.8,68,30.48,10.0,ENE,3.5,-,0.00,,Clear,70,2013-01-24 23:15:00
6:35 PM,17.6,6.8,63,30.48,10.0,East,3.5,-,0.00,,Clear,90,2013-01-24 23:35:00
6:55 PM,15.8,6.8,68,30.48,10.0,Calm,Calm,-,0.00,,Clear,0,2013-01-24 23:55:00
7:15 PM,17.6,6.8,63,30.49,10.0,Calm,Calm,-,0.00,,Clear,0,2013-01-25 00:15:00
7:35 PM,15.8,6.8,68,30.48,10.0,Calm,Calm,-,0.00,,Clear,0,2013-01-25 00:35:00
7:55 PM,15.8,6.8,68,30.48,10.0,East,3.5,-,0.00,,Clear,100,2013-01-25 00:55:00
8:15 PM,14.0,8.6,79,30.48,10.0,East,3.5,-,0.00,,Clear,90,2013-01-25 01:15:00
8:35 PM,15.8,8.6,73,30.47,10.0,East,3.5,-,0.00,,Clear,90,2013-01-25 01:35:00
8:55 PM,15.8,8.6,73,30.46,10.0,Calm,Calm,-,0.00,,Clear,0,2013-01-25 01:55:00
9:15 PM,17.6,8.6,68,30.46,10.0,Calm,Calm,-,0.00,,Clear,0,2013-01-25 02:15:00
9:35 PM,17.6,8.6,68,30.44,10.0,ESE,4.6,-,0.00,,Clear,110,2013-01-25 02:35:00
9:55 PM,17.6,8.6,68,30.44,10.0,SE,4.6,-,0.00,,Clear,130,2013-01-25 02:55:00
10:15 PM,17.6,8.6,68,30.44,10.0,SE,4.6,-,0.00,,Clear,140,2013-01-25 03:15:00
10:35 PM,17.6,8.6,68,30.43,10.0,SE,5.8,-,0.00,,Clear,130,2013-01-25 03:35:00
10:55 PM,17.6,8.6,68,30.42,10.0,East,4.6,-,0.00,,Clear,100,2013-01-25 03:55:00
11:15 PM,17.6,8.6,68,30.43,10.0,ESE,5.8,-,0.00,,Clear,120,2013-01-25 04:15:00
11:35 PM,17.6,8.6,68,30.41,10.0,ESE,5.8,-,0.00,,Clear,110,2013-01-25 04:35:00
11:55 PM,17.6,8.6,68,30.41,10.0,ESE,5.8,-,0.00,,Clear,120,2013-01-25 04:55:00